Tracking 32142 objects as of 12-Nov-2025
HD Live streaming from Space Station
objects crossing your sky now

EPIC ATHENA

Track EPIC ATHENA now!
10-day predictions


NORAD ID: 64871
Int'l Code: 2025-154C
Perigee: 592.1 km
Apogee: 599.2 km
Inclination: 97.7 °
Period: 96.4 minutes
Semi major axis: 6966 km
RCS: Unknown
Launch date: July 23, 2025
Source: United States (US)
Launch site: AIR FORCE WESTERN TEST RANGE (AFWTR)
Your satellite tracking list
Your tracking list is empty




NASA's NSSDC Master Catalog

Two Line Element Set (TLE):
1 64871U 25154C   25316.08143143  .00003116  00000-0  30485-3 0  9998
2 64871  97.6978  19.8101 0005108 244.4662 115.6030 14.93025406 16609
Source of the keplerian elements: AFSPC